Regional Weather Roundup
Issued by NWS Little Rock, AR

Home | Current Version | Previous Version | Text Only | Print | Product List | Glossary On
Versions: 1 2 3 4 5 6 7 8 9 10 11 12 13 14 15 16 17 18 19 20 21 22 23 24 25 26 27 28 29 30 31 32 33 34 35 36 37 38 39 40 41 42 43 44 45 46 47 48 49 50
000
ASUS44 KLZK 271005
RWRLZK

WEATHER ROUNDUP FOR ARKANSAS
NATIONAL WEATHER SERVICE LITTLE ROCK AR
500 AM CDT MON APR 27 2015

NOTE: "FAIR" INDICATES FEW OR NO CLOUDS BELOW 12,000 FEET WITH NO
SIGNIFICANT WEATHER AND/OR OBSTRUCTIONS TO VISIBILITY.

ARZ001-003-010-029-271100-
NORTHWEST ARKANSAS

CITY           SKY/WX    TMP DP  RH WIND       PRES   REMARKS
FAYETTEVILLE   LGT RAIN  51  50  96 E8        29.95F
FORT SMITH     LGT RAIN  55  49  80 E7        29.93R
HARRISON       CLOUDY    49  40  71 E8        30.00R
BENTONVILLE    CLOUDY    52  45  76 E8        29.96F
ROGERS         CLOUDY    52  43  71 E9        29.97F
SILOAM SPGS    CLOUDY    54  43  66 E8G20     29.94F
HIGHFILL       LGT RAIN  51  47  86 E12       29.94F
$$

ARZ004-005-016-271100-
NORTH CENTRAL ARKANSAS

CITY           SKY/WX    TMP DP  RH WIND       PRES   REMARKS
BATESVILLE     CLOUDY    48  41  76 SW3       30.03R
FLIPPIN        CLOUDY    48  43  81 CALM      30.00R
MTN HOME       CLOUDY    49  39  68 E6        29.99R
$$

ARZ040-041-271100-
WEST CENTRAL ARKANSAS

CITY           SKY/WX    TMP DP  RH WIND       PRES   REMARKS
MENA           CLOUDY    54  52  94 E7        29.91S
MOUNT IDA      LGT RAIN  54  51  90 CALM      29.89F
$$

ARZ009-017-025-026-028-271100-
NORTHEAST ARKANSAS

CITY           SKY/WX    TMP DP  RH WIND       PRES   REMARKS
CORNING          N/A     48  39  71 NE12      29.99R
JONESBORO      MOCLDY    49  41  74 NE13G21   29.98R
NEWPORT        CLOUDY    49  44  83 W3        30.03R
WALNUT RIDGE   CLOUDY    48  39  71 NE10      29.98R
BLYTHEVILLE    MOCLDY    49  42  77 NE13      29.95R
$$

ARZ022-023-033-042-044-271100-
CENTRAL ARKANSAS

CITY           SKY/WX    TMP DP  RH WIND       PRES   REMARKS
LITTLE ROCK    LGT RAIN  55  50  82 E9        29.94F
N LITTLE ROCK    N/A     54  52  91 NE7       29.94F
JACKSONVILLE   CLOUDY    55  49  82 NE6       29.97F
SEARCY         CLOUDY    53  43  68 NE9       30.00R
HOT SPRINGS    LGT RAIN  54  50  86 E7        29.91F
RUSSELLVILLE   CLOUDY    56  45  66 E7        29.95F
$$

ARZ036-271100-
EAST ARKANSAS

CITY           SKY/WX    TMP DP  RH WIND       PRES   REMARKS
WEST MEMPHIS   CLOUDY    50  45  83 NE7       29.95R
$$

ARZ050-053-066-070-073-271100-
SOUTHWEST ARKANSAS

CITY           SKY/WX    TMP DP  RH WIND       PRES   REMARKS
ARKADELPHIA    LGT RAIN  55  55 100 N14       29.87F
CAMDEN         CLOUDY    55  50  82 N6        29.89R
TEXARKANA      CLOUDY    55  53  93 NE9       29.88R
EL DORADO      CLOUDY    57  50  77 NE10      29.85F
$$

ARZ056-057-069-271100-
SOUTHEAST ARKANSAS

CITY           SKY/WX    TMP DP  RH WIND       PRES   REMARKS
PINE BLUFF     HVY RAIN  54  52  93 N17       29.90F FOG
STUTTGART      CLOUDY    55  48  76 NW3       29.99R
MONTICELLO     CLOUDY    57  50  77 NE10G20   29.88F

$$




USA.gov is the U.S. government's official web portal to all federal, state and local government web resources and services.